Regional Weather Roundup
Issued by NWS Green Bay, WI

Home | Current Version | Previous Version | Graphics & Text | Print | Product List | Glossary Off
Versions: 1 2 3 4 5 6 7 8 9 10 11 12 13 14 15 16 17 18 19 20 21 22 23 24 25 26 27 28 29 30 31 32 33 34 35 36 37 38 39 40 41 42 43 44 45 46 47 48 49 50

000
ASUS43 KGRB 050800
RWRGRB

NORTH-CENTRAL AND NORTHEAST WISCONSIN REGIONAL WEATHER ROUNDUP
NATIONAL WEATHER SERVICE GREEN BAY WI
300 AM CDT SAT SEP 05 2015

WIZ005-009-010>012-018-019-050900-
NORTH CENTRAL WISCONSIN

CITY           SKY/WX    TMP DP  RH WIND       PRES   REMARKS
IRONWOOD       CLEAR     70  66  88 S10G20    29.99F
MANITOWISH WTR NOT AVBL
ARBOR VITAE    NOT AVBL
EAGLE RIVER    NOT AVBL
LAND O LAKES   NOT AVBL
RHINELANDER    CLOUDY    65  64  97 CALM      30.09F FOG
PHILLIPS       CLOUDY    67  66  98 SE5       30.05F
ANTIGO         NOT AVBL
TOMAHAWK       CLOUDY    65  64  96 CALM      30.08F FOG
MERRILL        CLOUDY    66  66 100 SE6       30.08S FOG
$$

WIZ013-073-050900-
NORTHEAST WISCONSIN

CITY           SKY/WX    TMP DP  RH WIND       PRES   REMARKS
IRON MOUNTAIN  CLOUDY    62  60  93 CALM      30.07S FOG
MARINETTE      MOCLDY    64  61  88 CALM      30.05S VSB 3/4
OCONTO         PTCLDY    59  59 100 CALM      30.06R
$$

WIZ017-030-035>037-045-050900-
CENTRAL WISCONSIN

CITY           SKY/WX    TMP DP  RH WIND       PRES   REMARKS
MEDFORD        NOT AVBL
WAUSAU         CLOUDY    67  65  93 E3        30.06S FOG
MOSINEE        NOT AVBL
MARSHFIELD     MOCLDY    67  63  87 E7        30.06S FOG
WISC RAPIDS    PTCLDY    67  64  90 E3        30.06F
STEVENS POINT  NOT AVBL
WAUPACA        CLOUDY    68  67  98 CALM      30.06S FOG
SHAWANO        NOT AVBL
CLINTONVILLE   CLOUDY    63  63 100 CALM      30.07S FOG
WAUTOMA        NOT AVBL
$$

WIZ038-039-048-051-050900-
FOX VALLEY

CITY           SKY/WX    TMP DP  RH WIND       PRES   REMARKS
NWS GREEN BAY  FOG       61  60  97 CALM      30.06F VSB 1/4
APPLETON       NOT AVBL
OSHKOSH        CLOUDY    66  64  93 S3        30.05F FOG
FOND DU LAC    CLOUDY    65  64  97 S5        30.06F
$$

WIZ022-050-052-050900-
EAST CENTRAL WISCONSIN

CITY           SKY/WX    TMP DP  RH WIND       PRES   REMARKS
EPHRAIM        NOT AVBL
STURGEON BAY   CLOUDY    66  63  88 CALM      30.08S VSB 1/4
MANITOWOC      NOT AVBL
SHEBOYGAN      FOG       64  64 100 CALM      30.06S VSB 1/4
$$

LMZ563-521-522-541>543-050900-
LAKESHORE

STATION/POSITION TIME  TEMP    WIND        PRES    VSBY  WAVE
                       AIR SEA DIR/SP/G                  HT/PER
                 (UTC) (F)     (DEG/KT/KT) (MB)    (MI)  (FT/S)
SHEBOYGAN LKSHOR 0700   62      CALM  /  1 1018.1F
KEWAUNEE LKSHORE 0700   64     280/  3/  3 1016.7F
ALGOMA MARINA    0714          320/  4/  5   N/A
NORTHPORT PIER   0700   67     280/  4/  5 1017.6S
N MID LAKE BUOY  0650   68 67  130/  6/  6 1017.3R         1
S GREEN BAY BUOY 0700   66 67  300/  2/  2 1019.2
SISTER BAY LKSHO 0711   65        CALM       N/A
CHAMBERS ISLAND  0700   66      CALM  /  2 1017.9
MENOMINEE LKSHOR 0700   67     320/  5/  5 1016.6F
$$


USA.gov is the U.S. government's official web portal to all federal, state and local government web resources and services.